| time (UTC) | temp F | wind direction | speed MPH | gust MPH | rain 1hr in | rain 24hr in | rain mn in | humidity % | barometer mb |
| 20260904200621 | 75 | 203 | 4.0 | 20.0 | 0.00 | 0.00 | 0.00 | 26 | 1013.9 |
| 20260904195650 | 75 | 159 | 1.0 | 7.0 | 0.00 | 0.00 | 0.00 | 28 | 1014.0 |
| 20260904194616 | 74 | 219 | 3.0 | 16.0 | 0.00 | 0.00 | 0.00 | 31 | 1014.0 |
| 20260904193626 | 74 | 195 | 3.0 | 13.0 | 0.00 | 0.00 | 0.00 | 32 | 1014.1 |
| 20260904192633 | 74 | 214 | 6.0 | 21.0 | 0.00 | 0.00 | 0.00 | 29 | 1014.3 |
| 20260904191619 | 73 | 199 | 2.0 | 14.0 | 0.00 | 0.00 | 0.00 | 26 | 1014.3 |
| 20260904190627 | 74 | 200 | 3.0 | 15.0 | 0.00 | 0.00 | 0.00 | 27 | 1014.4 |
| 20260904185615 | 73 | 197 | 5.0 | 20.0 | 0.00 | 0.00 | 0.00 | 28 | 1014.4 |
| 20260904184628 | 74 | 209 | 3.0 | 9.0 | 0.00 | 0.00 | 0.00 | 23 | 1014.5 |
| 20260904183617 | 73 | 171 | 4.0 | 16.0 | 0.00 | 0.00 | 0.00 | 27 | 1014.5 |
| 20260904182624 | 73 | 210 | 5.0 | 24.0 | 0.00 | 0.00 | 0.00 | 25 | 1014.8 |
| 20260904181614 | 72 | 159 | 2.0 | 27.0 | 0.00 | 0.00 | 0.00 | 25 | 1014.8 |
| 20260904180615 | 72 | 155 | 4.0 | 30.0 | 0.00 | 0.00 | 0.00 | 23 | 1014.8 |
| 20260904175625 | 72 | 196 | 9.0 | 26.0 | 0.00 | 0.00 | 0.00 | 29 | 1014.8 |
| 20260904174612 | 71 | 195 | 7.0 | 30.0 | 0.00 | 0.00 | 0.00 | 26 | 1014.9 |
| 20260904173618 | 71 | 191 | 6.0 | 27.0 | 0.00 | 0.00 | 0.00 | 29 | 1015.0 |
| 20260904172625 | 71 | 213 | 15.0 | 34.0 | 0.00 | 0.00 | 0.00 | 27 | 1014.9 |
| 20260904171637 | 71 | 184 | 5.0 | 26.0 | 0.00 | 0.00 | 0.00 | 26 | 1014.8 |
| 20260904170623 | 71 | 200 | 4.0 | 12.0 | 0.00 | 0.00 | 0.00 | 26 | 1014.7 |
| 20260904165635 | 71 | 205 | 7.0 | 14.0 | 0.00 | 0.00 | 0.00 | 22 | 1014.9 |
| 20260904164622 | 71 | 207 | 4.0 | 14.0 | 0.00 | 0.00 | 0.00 | 26 | 1014.9 |
| 20260904163612 | 70 | 203 | 3.0 | 28.0 | 0.00 | 0.00 | 0.00 | 26 | 1014.7 |
| 20260904162618 | 70 | 213 | 3.0 | 15.0 | 0.00 | 0.00 | 0.00 | 23 | 1014.7 |
| 20260904161624 | 70 | 182 | 1.0 | 6.0 | 0.00 | 0.00 | 0.00 | 30 | 1014.7 |
| 20260904160612 | 68 | 179 | 2.0 | 12.0 | 0.00 | 0.00 | 0.00 | 35 | 1014.7 |
| 20260904155619 | 67 | 115 | 2.0 | 7.0 | 0.00 | 0.00 | 0.00 | 34 | 1014.6 |
| 20260904154629 | 67 | 116 | 3.0 | 10.0 | 0.00 | 0.00 | 0.00 | 35 | 1014.5 |
| 20260904153637 | 66 | 111 | 3.0 | 10.0 | 0.00 | 0.00 | 0.00 | 36 | 1014.5 |
| 20260904152642 | 66 | 132 | 3.0 | 10.0 | 0.00 | 0.00 | 0.00 | 39 | 1014.6 |
| 20260904151627 | 66 | 136 | 2.0 | 6.0 | 0.00 | 0.00 | 0.00 | 32 | 1014.6 |
| 20260904150618 | 65 | 155 | 1.0 | 6.0 | 0.00 | 0.00 | 0.00 | 30 | 1014.6 |
| 20260904145623 | 64 | 157 | 0.0 | 3.0 | 0.00 | 0.00 | 0.00 | 35 | 1014.6 |
| 20260904144648 | 63 | 165 | 0.0 | 5.0 | 0.00 | 0.00 | 0.00 | 36 | 1014.7 |
| 20260904143612 | 63 | 171 | 1.0 | 3.0 | 0.00 | 0.00 | 0.00 | 36 | 1014.6 |
| 20260904142620 | 62 | 173 | 0.0 | 1.0 | 0.00 | 0.00 | 0.00 | 35 | 1014.5 |
| 20260904141610 | 60 | 200 | 0.0 | 0.0 | 0.00 | 0.00 | 0.00 | 39 | 1014.4 |
| 20260904140639 | 59 | 200 | 0.0 | 0.0 | 0.00 | 0.00 | 0.00 | 37 | 1014.4 |
| 20260904135647 | 58 | 200 | 0.0 | 0.0 | 0.00 | 0.00 | 0.00 | 35 | 1014.3 |
| 20260904134634 | 58 | 215 | 0.0 | 0.0 | 0.00 | 0.00 | 0.00 | 34 | 1014.2 |
| 20260904133622 | 56 | 216 | 0.0 | 0.0 | 0.00 | 0.00 | 0.00 | 34 | 1014.0 |
| 20260904132614 | 55 | 232 | 0.0 | 0.0 | 0.00 | 0.00 | 0.00 | 34 | 1014.0 |
| 20260904131622 | 54 | 226 | 0.0 | 0.0 | 0.00 | 0.00 | 0.00 | 35 | 1013.8 |
| 20260904130611 | 54 | 226 | 0.0 | 0.0 | 0.00 | 0.00 | 0.00 | 36 | 1013.6 |
| 20260904125621 | 54 | 206 | 0.0 | 0.0 | 0.00 | 0.00 | 0.00 | 34 | 1013.4 |
| 20260904124614 | 54 | 206 | 0.0 | 0.0 | 0.00 | 0.00 | 0.00 | 34 | 1013.2 |
| 20260904123621 | 54 | 206 | 0.0 | 0.0 | 0.00 | 0.00 | 0.00 | 34 | 1013.2 |
| 20260904122627 | 55 | 206 | 0.0 | 0.0 | 0.00 | 0.00 | 0.00 | 33 | 1013.1 |
| 20260904121613 | 55 | 207 | 0.0 | 0.0 | 0.00 | 0.00 | 0.00 | 36 | 1012.9 |
| 20260904120618 | 57 | 215 | 0.0 | 0.0 | 0.00 | 0.00 | 0.00 | 32 | 1012.8 |
| 20260904115624 | 58 | 215 | 0.0 | 0.0 | 0.00 | 0.00 | 0.00 | 32 | 1012.7 |
| 20260904114610 | 58 | 207 | 0.0 | 0.0 | 0.00 | 0.00 | 0.00 | 31 | 1012.7 |
| 20260904113617 | 57 | 213 | 0.0 | 0.0 | 0.00 | 0.00 | 0.00 | 33 | 1012.7 |
| 20260904112623 | 58 | 209 | 0.0 | 0.0 | 0.00 | 0.00 | 0.00 | 32 | 1012.7 |
| 20260904111612 | 58 | 216 | 0.0 | 0.0 | 0.00 | 0.00 | 0.00 | 32 | 1012.7 |
| 20260904110618 | 58 | 219 | 0.0 | 0.0 | 0.00 | 0.00 | 0.00 | 32 | 1012.6 |
| 20260904105628 | 58 | 213 | 0.0 | 0.0 | 0.00 | 0.00 | 0.00 | 32 | 1012.5 |
| 20260904104616 | 58 | 199 | 0.0 | 0.0 | 0.00 | 0.00 | 0.00 | 33 | 1012.4 |
| 20260904103628 | 57 | 209 | 0.0 | 0.0 | 0.00 | 0.00 | 0.00 | 33 | 1012.3 |
| 20260904102617 | 57 | 209 | 0.0 | 0.0 | 0.00 | 0.00 | 0.00 | 35 | 1012.2 |
| 20260904101622 | 57 | 203 | 0.0 | 1.0 | 0.00 | 0.00 | 0.00 | 34 | 1012.1 |
| 20260904100649 | 57 | 206 | 0.0 | 1.0 | 0.00 | 0.00 | 0.00 | 35 | 1012.1 |
| 20260904095637 | 56 | 195 | 0.0 | 0.0 | 0.00 | 0.00 | 0.00 | 35 | 1012.0 |
| 20260904094647 | 56 | 214 | 0.0 | 0.0 | 0.00 | 0.00 | 0.00 | 36 | 1011.9 |
| 20260904093613 | 55 | 221 | 0.0 | 0.0 | 0.00 | 0.00 | 0.00 | 36 | 1012.0 |
| 20260904092642 | 55 | 224 | 0.0 | 0.0 | 0.00 | 0.00 | 0.00 | 38 | 1011.7 |
| 20260904091648 | 54 | 232 | 0.0 | 0.0 | 0.00 | 0.00 | 0.00 | 39 | 1011.7 |
| 20260904090619 | 55 | 270 | 0.0 | 0.0 | 0.00 | 0.00 | 0.00 | 37 | 1011.7 |
| 20260904085650 | 54 | 270 | 0.0 | 0.0 | 0.00 | 0.00 | 0.00 | 40 | 1011.8 |
| 20260904084617 | 54 | 271 | 0.0 | 0.0 | 0.00 | 0.00 | 0.00 | 41 | 1011.8 |
| 20260904083625 | 54 | 271 | 0.0 | 0.0 | 0.00 | 0.00 | 0.00 | 42 | 1011.7 |
| 20260904082612 | 53 | 271 | 0.0 | 0.0 | 0.00 | 0.00 | 0.00 | 41 | 1011.8 |
| 20260904081623 | 53 | 272 | 0.0 | 0.0 | 0.00 | 0.00 | 0.00 | 43 | 1011.8 |
| 20260904080624 | 53 | 272 | 0.0 | 0.0 | 0.00 | 0.00 | 0.00 | 46 | 1011.7 |
| 20260904075631 | 54 | 272 | 0.0 | 0.0 | 0.00 | 0.00 | 0.00 | 42 | 1011.7 |
| 20260904074615 | 54 | 272 | 0.0 | 0.0 | 0.00 | 0.00 | 0.00 | 42 | 1011.9 |
| 20260904073623 | 54 | 272 | 0.0 | 0.0 | 0.00 | 0.00 | 0.00 | 47 | 1011.9 |
| 20260904072629 | 54 | 272 | 0.0 | 0.0 | 0.00 | 0.00 | 0.00 | 47 | 1011.9 |
| 20260904071613 | 54 | 269 | 0.0 | 0.0 | 0.00 | 0.00 | 0.00 | 45 | 1011.9 |
| 20260904070619 | 56 | 270 | 0.0 | 0.0 | 0.00 | 0.00 | 0.00 | 41 | 1012.0 |
| 20260904065611 | 55 | 273 | 0.0 | 0.0 | 0.00 | 0.00 | 0.00 | 42 | 1012.1 |
| 20260904064618 | 55 | 274 | 0.0 | 0.0 | 0.00 | 0.00 | 0.00 | 43 | 1012.0 |
| 20260904063646 | 56 | 227 | 0.0 | 0.0 | 0.00 | 0.00 | 0.00 | 44 | 1011.9 |
| 20260904062612 | 56 | 226 | 0.0 | 0.0 | 0.00 | 0.00 | 0.00 | 46 | 1011.9 |
| 20260904061640 | 55 | 225 | 0.0 | 0.0 | 0.00 | 0.00 | 0.00 | 46 | 1011.9 |
| 20260904060640 | 55 | 226 | 0.0 | 0.0 | 0.00 | 0.00 | 0.00 | 44 | 1011.9 |
| 20260904055645 | 56 | 225 | 0.0 | 0.0 | 0.00 | 0.00 | 0.00 | 45 | 1011.9 |
| 20260904054614 | 57 | 283 | 0.0 | 0.0 | 0.00 | 0.00 | 0.00 | 44 | 1011.8 |
| 20260904053622 | 57 | 276 | 0.0 | 0.0 | 0.00 | 0.00 | 0.00 | 42 | 1011.9 |
| 20260904052649 | 57 | 255 | 0.0 | 0.0 | 0.00 | 0.00 | 0.00 | 41 | 1011.9 |
| 20260904051616 | 58 | 265 | 0.0 | 0.0 | 0.00 | 0.00 | 0.00 | 44 | 1012.0 |
| 20260904050648 | 58 | 277 | 0.0 | 0.0 | 0.00 | 0.00 | 0.00 | 42 | 1012.0 |
| 20260904045637 | 58 | 265 | 0.0 | 0.0 | 0.00 | 0.00 | 0.00 | 41 | 1012.1 |
| 20260904044623 | 59 | 253 | 0.0 | 0.0 | 0.00 | 0.00 | 0.00 | 38 | 1012.1 |
| 20260904043610 | 58 | 276 | 0.0 | 0.0 | 0.00 | 0.00 | 0.00 | 42 | 1012.1 |
| 20260904042621 | 58 | 269 | 0.0 | 0.0 | 0.00 | 0.00 | 0.00 | 42 | 1012.2 |
| 20260904041627 | 59 | 271 | 0.0 | 0.0 | 0.00 | 0.00 | 0.00 | 42 | 1012.3 |
| 20260904040614 | 59 | 191 | 0.0 | 0.0 | 0.00 | 0.00 | 0.00 | 40 | 1012.1 |
| 20260904035620 | 61 | 183 | 0.0 | 0.0 | 0.00 | 0.00 | 0.00 | 42 | 1012.1 |
| 20260904034624 | 62 | 302 | 0.0 | 0.0 | 0.00 | 0.00 | 0.00 | 34 | 1011.9 |
| 20260904033615 | 61 | 276 | 0.0 | 0.0 | 0.00 | 0.00 | 0.00 | 36 | 1012.1 |
| 20260904032622 | 62 | 247 | 0.0 | 0.0 | 0.00 | 0.00 | 0.00 | 42 | 1012.0 |
| 20260904031627 | 63 | 276 | 0.0 | 0.0 | 0.00 | 0.00 | 0.00 | 33 | 1012.0 |
| 20260904030618 | 63 | 276 | 0.0 | 0.0 | 0.00 | 0.00 | 0.00 | 35 | 1012.1 |
| 20260904025626 | 64 | 276 | 0.0 | 0.0 | 0.00 | 0.00 | 0.00 | 32 | 1011.9 |
| 20260904024611 | 65 | 264 | 0.0 | 0.0 | 0.00 | 0.00 | 0.00 | 30 | 1011.9 |
| 20260904023639 | 65 | 267 | 0.0 | 0.0 | 0.00 | 0.00 | 0.00 | 30 | 1011.8 |
| 20260904022624 | 65 | 272 | 0.0 | 0.0 | 0.00 | 0.00 | 0.00 | 30 | 1011.8 |
| 20260904021651 | 66 | 276 | 0.0 | 0.0 | 0.00 | 0.00 | 0.00 | 29 | 1011.8 |
| 20260904020621 | 66 | 275 | 0.0 | 0.0 | 0.00 | 0.00 | 0.00 | 30 | 1011.8 |
| 20260904015630 | 67 | 286 | 0.0 | 0.0 | 0.00 | 0.00 | 0.00 | 28 | 1011.8 |
| 20260904014617 | 68 | 261 | 0.0 | 0.0 | 0.00 | 0.00 | 0.00 | 28 | 1011.7 |
| 20260904013644 | 70 | 261 | 0.0 | 0.0 | 0.00 | 0.00 | 0.00 | 26 | 1011.9 |
| 20260904012612 | 72 | 244 | 0.0 | 2.0 | 0.00 | 0.00 | 0.00 | 23 | 1011.9 |
| 20260904011619 | 74 | 235 | 0.0 | 4.0 | 0.00 | 0.00 | 0.00 | 23 | 1011.8 |
| 20260904010626 | 75 | 234 | 0.0 | 0.0 | 0.00 | 0.00 | 0.00 | 23 | 1011.8 |
| 20260904005615 | 74 | 234 | 1.0 | 14.0 | 0.00 | 0.00 | 0.00 | 20 | 1011.7 |
| 20260904004626 | 74 | 213 | 5.0 | 16.0 | 0.00 | 0.00 | 0.00 | 21 | 1011.8 |
| 20260904003612 | 74 | 220 | 3.0 | 19.0 | 0.00 | 0.00 | 0.00 | 25 | 1011.7 |
| 20260904002625 | 75 | 211 | 4.0 | 21.0 | 0.00 | 0.00 | 0.00 | 24 | 1011.9 |
| 20260904001610 | 75 | 221 | 4.0 | 19.0 | 0.00 | 0.00 | 0.00 | 24 | 1011.8 |
| 20260904000612 | 75 | 210 | 5.0 | 25.0 | 0.00 | 0.00 | 0.00 | 25 | 1011.9 |
| 20260903235640 | 75 | 209 | 8.0 | 35.0 | 0.00 | 0.00 | 0.00 | 23 | 1011.9 |
| 20260903234629 | 75 | 208 | 4.0 | 17.0 | 0.00 | 0.00 | 0.00 | 25 | 1012.0 |
| 20260903233616 | 75 | 207 | 5.0 | 25.0 | 0.00 | 0.00 | 0.00 | 22 | 1012.1 |
| 20260903232623 | 75 | 205 | 6.0 | 21.0 | 0.00 | 0.00 | 0.00 | 20 | 1012.1 |
| 20260903231613 | 75 | 190 | 0.0 | 6.0 | 0.00 | 0.00 | 0.00 | 23 | 1012.1 |
| 20260903230621 | 74 | 178 | 2.0 | 9.0 | 0.00 | 0.00 | 0.00 | 19 | 1012.1 |
| 20260903225610 | 74 | 225 | 0.0 | 5.0 | 0.00 | 0.00 | 0.00 | 19 | 1012.3 |
| 20260903224618 | 75 | 215 | 1.0 | 10.0 | 0.00 | 0.00 | 0.00 | 21 | 1012.5 |
| 20260903223625 | 74 | 234 | 4.0 | 11.0 | 0.00 | 0.00 | 0.00 | 21 | 1012.7 |
| 20260903222616 | 74 | 192 | 0.0 | 14.0 | 0.00 | 0.00 | 0.00 | 20 | 1012.7 |
| 20260903221622 | 74 | 219 | 4.0 | 12.0 | 0.00 | 0.00 | 0.00 | 23 | 1012.8 |
| 20260903220626 | 74 | 188 | 1.0 | 22.0 | 0.00 | 0.00 | 0.00 | 20 | 1012.9 |
| 20260903215612 | 73 | 223 | 1.0 | 10.0 | 0.00 | 0.00 | 0.00 | 22 | 1012.9 |
| 20260903214621 | 74 | 232 | 4.0 | 14.0 | 0.00 | 0.00 | 0.00 | 19 | 1013.1 |
| 20260903213629 | 74 | 225 | 3.0 | 11.0 | 0.00 | 0.00 | 0.00 | 22 | 1013.1 |
| 20260903212615 | 74 | 224 | 4.0 | 20.0 | 0.00 | 0.00 | 0.00 | 22 | 1013.2 |
| 20260903211622 | 73 | 236 | 1.0 | 14.0 | 0.00 | 0.00 | 0.00 | 21 | 1013.3 |
| 20260903210614 | 73 | 233 | 0.0 | 17.0 | 0.00 | 0.00 | 0.00 | 19 | 1013.3 |
| 20260903205623 | 73 | 195 | 4.0 | 18.0 | 0.00 | 0.00 | 0.00 | 20 | 1013.5 |
| 20260903204610 | 73 | 211 | 3.0 | 20.0 | 0.00 | 0.00 | 0.00 | 20 | 1013.6 |
| 20260903203616 | 73 | 209 | 2.0 | 17.0 | 0.00 | 0.00 | 0.00 | 22 | 1013.8 |
| 20260903202624 | 73 | 213 | 3.0 | 19.0 | 0.00 | 0.00 | 0.00 | 22 | 1014.0 |
| 20260903201629 | 72 | 243 | 6.0 | 21.0 | 0.00 | 0.00 | 0.00 | 21 | 1014.0 |